Weather History for KGTF - August, 2013

Change the Weather History Date:

Thursday, August 29, 2013

  Actual Average Record
Temperature  
Mean Temperature 74 °F 63 °F  
Max Temperature 94 °F 78 °F 97 °F (2005)
Min Temperature 53 °F 47 °F 34 °F (1992)
Degree Days  
Heating Degree Days 0 4  
Month to date heating degree days 8 62  
Since 1 June heating degree days 196 303  
Since 1 July heating degree days 24 112  
Cooling Degree Days 9 2  
Month to date cooling degree days 160 109  
Year to date cooling degree days 364 272  
Since 1 June cooling degree days 361 265  
Growing Degree Days 24 (Base 50)    
Moisture  
Dew Point 50 °F    
Average Humidity 53    
Maximum Humidity 89    
Minimum Humidity 16    
Precipitation  
Precipitation 0.01 in 0.06 in 0.90 in (1993)
Month to date precipitation 1.08 1.46  
Year to date precipitation 8.89 11.22  
Snow  
Snow 0.00 in 0.00 in 0.00 in (2002)
Month to date snowfall 0.0 0.3  
Since 1 June snowfall 0.0 0.6  
Since 1 July snowfall 0.0 0.3  
Snow Depth 0.00 in    
Sea Level Pressure  
Sea Level Pressure 29.95 in    
Wind  
Wind Speed 7 mph (SSW)    
Max Wind Speed 36 mph    
Max Gust Speed 43 mph    
Visibility 10 miles    
Events Rain    
T = Trace of Precipitation, MM = Missing Value Source: NWS Daily Summary

Daily Weather History Graph

Daily Weather History Graph

Search for Another Location

Airport or City:

Trip Planner

Search our weather history database for the weather conditions in past years. The results will help you decide how hot, cold, wet, or windy it might be!

Date:

Astronomy

Aug. 29, 2013 Rise Set
Actual Time 6:40 AM MDT 8:11 PM MDT
Civil Twilight 6:08 AM MDT 8:42 PM MDT
Nautical Twilight 5:29 AM MDT 9:21 PM MDT
Astronomical Twilight 4:47 AM MDT 10:03 PM MDT
Moon 12:22 AM MDT (8/29) 3:55 PM MDT (8/29)
Length of Visible Light 14h 34m
Length of Day
13h 30m
Last Quarter, 37% of the Moon is Illuminated
Aug 29
Last Quarter
Sep 5
New
Sep 12
First Quarter
Sep 19
Full
Sep 26
Last Quarter

Hourly Weather History & Observations

Time (MDT) Temp. Dew Point Humidity Pressure Visibility Wind Dir Wind Speed Gust Speed Precip Events Conditions
12:53 AM 64.0 °F 52.0 °F 65% 29.93 in 10.0 mi South 10.4 mph - N/A   Clear
1:53 AM 62.1 °F 52.0 °F 70% 29.94 in 10.0 mi South 9.2 mph - N/A   Clear
2:53 AM 60.1 °F 52.0 °F 75% 29.96 in 10.0 mi South 6.9 mph - N/A   Clear
3:53 AM 55.9 °F 50.0 °F 80% 30.00 in 10.0 mi West 3.5 mph - N/A   Clear
4:53 AM 54.0 °F 50.0 °F 86% 30.00 in 10.0 mi SSW 6.9 mph - N/A   Clear
5:53 AM 59.0 °F 52.0 °F 78% 29.99 in 10.0 mi SW 8.1 mph - N/A   Clear
6:53 AM 55.9 °F 51.1 °F 84% 30.01 in 10.0 mi SW 5.8 mph - N/A   Partly Cloudy
7:53 AM 62.1 °F 55.0 °F 78% 30.01 in 10.0 mi SSW 4.6 mph - N/A   Partly Cloudy
8:53 AM 70.0 °F 53.1 °F 55% 30.02 in 10.0 mi SSW 5.8 mph - N/A   Clear
9:53 AM 75.0 °F 53.1 °F 46% 30.00 in 10.0 mi SSW 8.1 mph - N/A   Clear
10:53 AM 82.0 °F 52.0 °F 35% 29.98 in 10.0 mi South 11.5 mph - N/A   Clear
11:53 AM 84.9 °F 48.9 °F 29% 29.96 in 10.0 mi Variable 5.8 mph - N/A   Clear
12:53 PM 89.1 °F 48.0 °F 24% 29.93 in 10.0 mi Variable 4.6 mph - N/A   Clear
1:53 PM 91.0 °F 45.0 °F 20% 29.91 in 10.0 mi SE 8.1 mph - N/A   Clear
2:53 PM 93.0 °F 45.0 °F 19% 29.89 in 10.0 mi ESE 8.1 mph - N/A   Scattered Clouds
3:53 PM 91.0 °F 42.1 °F 18% 29.88 in 10.0 mi SE 6.9 mph 18.4 mph N/A   Clear
4:53 PM 91.9 °F 39.9 °F 16% 29.86 in 10.0 mi SSE 8.1 mph - N/A   Partly Cloudy
5:53 PM 93.0 °F 41.0 °F 16% 29.83 in 10.0 mi South 10.4 mph - N/A   Clear
6:53 PM 86.0 °F 44.1 °F 23% 29.86 in 10.0 mi SSW 5.8 mph - N/A   Clear
7:53 PM 81.0 °F 45.0 °F 28% 29.86 in 10.0 mi South 5.8 mph - N/A   Clear
8:33 PM 71.6 °F 53.6 °F 53% 30.02 in 10.0 mi West 18.4 mph 28.8 mph 0.00 in Rain Light Rain
8:53 PM 70.0 °F 53.1 °F 55% 29.94 in 10.0 mi WNW 9.2 mph 32.2 mph 0.00 in   Mostly Cloudy
9:53 PM 66.0 °F 52.0 °F 60% 29.96 in 10.0 mi NW 5.8 mph - N/A   Scattered Clouds
10:53 PM 64.0 °F 53.1 °F 67% 29.99 in 10.0 mi SSW 4.6 mph - N/A   Mostly Cloudy
11:53 PM 64.0 °F 55.0 °F 73% 29.99 in 10.0 mi ENE 3.5 mph - N/A   Scattered Clouds